Flag for U.S.A. Weather past 2 weeks in Monterey, California, U.S.A.

Now
76 °F

Sunny.


Feels Like: 78 °F
Forecast: 53 / 71 °F
Wind: 6 mph from West

Location: Monterey Peninsula Airport

Current Time: Mar 26, 2015 at 12:35:25 PM

Latest Report: Mar 26, 2015 at 11:54 AM


Visibility: 10 mi

Pressure: 30.16 "Hg

Humidity: 39%

Dew point: 49 °F

Location of MontereyLocation

Historic Weather in Monterey — Graph

°F

Monterey temperature yesterday

Maximum temperature yesterday: 65 °F (at 12:54 PM)
Minimum temperature yesterday: 50 °F (at 4:54 AM)
Average temperature yesterday: 58 °F

Past Weeks' High & Low Weather Summary

 TemperatureHumidityPressure
High86 °F (Mar 14, 1:54 PM)97% (Mar 11, 10:54 AM)30.35 "Hg (Mar 11, 10:54 AM)
Low46 °F (Mar 18, 4:54 AM)19% (Mar 14, 3:54 PM)30.00 "Hg (Mar 14, 5:54 PM)
Average58 °F69%30.17 "Hg
* Reported Mar 11 10:54 AM — Mar 26 10:54 AM, Monterey, Weather by CustomWeather, © 2015

Note: Actual official high and low records may vary slightly from our data, if they occured in-between our weather recording intervals... More about our weather records

Advertising

Monterey weather history for previous 24 hours

 ConditionsComfort  
Time TempWeatherWind HumidityBarometerVisibility
10:54 AM
Thu, Mar 26
71 °FSunny.No wind41%30.17 "Hg10 mi
9:54 AM65 °FSunny.No wind52%30.18 "Hg10 mi
8:54 AM60 °FSunny.No wind62%30.16 "Hg10 mi
7:54 AM54 °FClear.No wind67%30.16 "Hg10 mi
6:54 AM50 °FClear.No wind77%30.15 "Hg10 mi
5:54 AM51 °FClear.3 mph80%30.15 "Hg10 mi
4:54 AM51 °FClear.3 mph80%30.15 "Hg10 mi
3:54 AM55 °FClear.5 mph72%30.16 "Hg10 mi
2:54 AM53 °FClear.5 mph80%30.16 "Hg10 mi
1:54 AM50 °FClear.5 mph86%30.18 "Hg10 mi
12:54 AM52 °FClear.5 mph80%30.19 "Hg10 mi
11:54 PM
Wed, Mar 25
53 °FClear.5 mph77%30.20 "Hg10 mi
10:54 PM53 °FClear.No wind80%30.20 "Hg10 mi
9:54 PM57 °FClear.3 mph74%30.21 "Hg10 mi
8:54 PM58 °FClear.6 mph72%30.21 "Hg10 mi
7:54 PM59 °FSunny.5 mph72%30.20 "Hg10 mi
6:54 PM61 °FSunny.No wind70%30.20 "Hg10 mi
5:54 PM62 °FSunny.6 mph67%30.19 "Hg10 mi
4:54 PM63 °FSunny.7 mph65%30.19 "Hg10 mi
3:54 PM62 °FSunny.12 mph67%30.21 "Hg10 mi
2:54 PM64 °FSunny.7 mph63%30.22 "Hg10 mi
1:54 PM64 °FSunny.10 mph65%30.24 "Hg10 mi
12:54 PM65 °FSunny.7 mph59%30.26 "Hg10 mi
Weather by CustomWeather, © 2015

See weather overviewHow to use our weather pages